User: anonymous   Login
Location: Winthrop
(48.4780°N, 120.1850°W)
Time: 02:53:05
(UTC-08:00)
Language:

Hubble Space Telescope - Orbit

View from above orbital plane
View from above orbital plane
View from above satellite
View from above satellite

Ground track
Ground track

The orbit data is extracted from the following two-line orbital elements,

1 20580U 90037B   24064.90858138  .00005782  00000-0  28181-3 0  9997
2 20580  28.4693 322.9506 0002765 342.9242  17.1257 15.16178820661186
Epoch (UTC): 04 March 2024 21:48:21
Eccentricity: 0.0002765
inclination: 28.4693°
perigee height: 515 km
apogee height: 519 km
right ascension of ascending node: 322.9506°
argument of perigee: 342.9242°
revolutions per day: 15.16178820
mean anomaly at epoch: 17.1257°
orbit number at epoch: 66118

The dashed part of the orbit path shows where the satellite is in the earth's shadow,  

DLR